Location: Eurasberg
(48.3353°N, 11.0839°E)
Time: 11:15:13
(UTC+00:00)

Lacrosse 4 Rocket - Pass Details

Date: 18 January 2026
Orbit: 513 x 564 km, 68.0° (Epoch: 11 February)

Event Time Altitude Azimuth Distance (km) Brightness Sun altitude
Exits shadow 04:57:13 - 200° (SSW) 2,438 4.5 -19.9°
Reaches altitude 10° 04:58:54 10° 197° (SSW) 1,760 3.8 -19.6°
Maximum altitude 05:02:45 58° 118° (ESE) 613 1.8 -19.0°
Drops below altitude 10° 05:06:35 10° 40° (NE) 1,752 4.2 -18.3°
Sets 05:08:46 0° 36° (NE) 2,640 5.1 -18.0°
